User: anonymous   Login
Location: Caltech
(34.1382°N, 118.1253°W)
Time: 19:34:04
(UTC-07:00)
Language:

SPOT 1/Viking Rocket - Orbit

View from above orbital plane
View from above orbital plane
View from above satellite
View from above satellite

Ground track
Ground track

The orbit data is extracted from the following two-line orbital elements,

1 16615U 86019C   17203.95340233 +.00000018 +00000-0 +23305-4 0  9991
2 16615 098.6095 270.8949 0010683 303.2607 164.0742 14.31663764644533
Epoch (UTC): 22 July 2017 22:52:53
Eccentricity: 0.0010683
inclination: 98.6095°
perigee height: 778 km
apogee height: 794 km
right ascension of ascending node: 270.8949°
argument of perigee: 303.2607°
revolutions per day: 14.31663764
mean anomaly at epoch: 164.0742°
orbit number at epoch: 64453

The dashed part of the orbit path shows where the satellite is in the earth's shadow,  

DLR